SCOUT X-4 DEB, 2011

Orbit data source: Space-Track

SCOUT X-4 DEB, 2011 is space debris in LEO originally from a launch on Thu, 29 Apr 1965 UTC launched from the Wallops Island (WLPIS). Debris objects in space refer to the collection of defunct objects orbiting the Earth. Examples of debris include non-operational satellites, rocket bodies, and fragments generated from explosions, collisions, or faulty payload assembly.

Loading next visibility...
Identifier
2011, 1965-032D
Orbit
LEO
Country
Flag of USUS
Related business
Manufacturer
Unknown
Mission
Spacecraft
Bus & Motor
Unknown
Mass
Unknown
Launch date (UTC)
1965-04-29 (61 years ago)
Launch vehicle
Unknown
Launch site
Wallops Island (WLPIS)
Object type
Payload
Rocket body
Debris
Shape & HBR
Unknown shape, 0.1 m
Radar Cross Section
Small (<0.1 m²)

Expand to show TLE details & history
Last TLE update: 7 hours ago

TLE from 7 hours ago
0 SCOUT X-4 DEB
1 02011U 65032D   26208.64422075  .00000438  00000-0  81013-3 0  9999
2 02011  41.1988 307.8682 0222063 149.6953 346.4039 13.41013717982751
Epoch: 2026-07-27T15:27Z
TLE epoch observation values (Epoch: 2026-07-27T15:27:40.672Z)
Latitude
27.60327°
Longitude
-85.82823°
Altitude
944.311 km
Speed
7.463 km/s
True Right ascension
06h 05m 39s
True Declination
27° 27' 57"
Sunlit
Object was in daylight at epoch
Visualization orbit readout
Latitude
Unknown
Longitude
Unknown
Altitude
Unknown
Speed
Unknown
Apparent Right ascension
Unknown
Apparent Declination
Unknown
Sunlit
N/A
Visualization observer readout
Local Sidereal Time
11:23:36
Azimuth
Unknown
Elevation
Unknown
Doppler factor
Unknown
Orbital elements
Apogee altitude
1,273.797 km
Perigee altitude
941.337 km
Semi-major axis
7,485.704 km
Eccentricity
0.02221
Inclination
41.1988°
RAAN
307.8682°
Arg. of periapsis
149.6953°
True anomaly
345.78916°
Mean anomaly
346.4039°
Eccentric anomaly
346.09821°
Mean motion
3.35115 °/min
Orbital period
107.43 mins
BSTAR
0.00081013
Loading maneuver chart data...
Computing Atmospheric mass density...
Loading historical data...
Loading historical data...
Loading historical data...
Loading historical data...
Loading historical data...
Loading historical data...
Loading historical data...
Other satellites on launch #32 in the year 1965 (1965-04-29 UTC)

Documentation

Showing up to 5 results
|